www.pogodaiklimat.ru

Погода и климат >> Архив погоды >> Россия >> Ленинградская область >> Волосово


ПОГОДА в Волосово

  • Прогноз погоды в Волосово
  • Монитор погоды в Волосово

АРХИВ ПОГОДЫ в Волосово

Время (UTC), дата Ветер
(напр.,м/с)
 
Видим.   Явления Облачность Т
(С)
Тd
(С)
f
(%)
Тe
(С)
Тes
(С)
Комфортность P
(гПа)
Po
(гПа)
Тmin
(С)
Tmax
(С)
R
(мм)
R24
(мм)
S
(см)
03 20.05 В 2 10 км 8/0
[Ac trans Ci fib]
+13.2 +7.1 66 +13 +13 1019.3 1003.9 +10.4
06 20.05 В 3 10 км 8/0
[Ac trans Ci fib]
+17.6 +9.0 57 +18 +21 1018.8 1003.6 +10.4
09 20.05 Ю 3 10 км 8/0
[Ci fib]
+22.8 +10.2 45 +25 +34 комфорт 1018.2 1003.3
12 20.05 Ю 2 10 км 8/3 1000 м
[Cu hum Ci fib]
+24.5 +9.2 38 +25 +32 комфорт 1017.1 1002.3
15 20.05 ЮВ 4 10 км 8/4 1000 м
[Cu hum Ci fib]
+24.4 +11.0 43 +26 +27 жарко 1015.6 1000.8
18 20.05 Ю 1 10 км 9/5 1000 м
[Sc diur, vesp Ci fib]
+19.9 +11.4 58 +23 +23 комфорт 1015.2 1000.2 +25.7
21 20.05 штиль 0 10 км 8/4 1000 м
[Sc diur, vesp Ci fib]
+14.4 +10.9 79 +14 +14 1015.6 1000.3
00 21.05 ЮВ 1 10 км 8/4 1000 м
[Sc diur, vesp Ci fib]
+10.8 +9.1 89 +10 +10 1015.5 1000.0
03 21.05 ЮВ 1 10 км 9/5 1000 м
[Sc diur, vesp Ci fib]
+12.4 +10.2 86 +12 +13 1015.0 999.6 +10.7
06 21.05 Ю 1 10 км 9/5 1000 м
[Sc diur, vesp Ci fib]
+18.4 +12.5 68 +20 +23 1014.0 999.0 +10.4
09 21.05 Ю 2 10 км 8/5 1000 м
[Sc diur, vesp Ci fib]
+23.5 +11.5 47 +25 +31 комфорт 1013.3 998.5
12 21.05 ЮЗ 3 10 км 9/6 600 м
[Sc diur, vesp Ci fib]
+24.2 +9.8 40 +25 +28 комфорт 1012.3 997.6
15 21.05 ЮЗ 2
{11}
10 км гроза без осадков 9/9 800 м
[Cb cap]
+17.8 +12.5 71 +18 +19 1012.7 997.6
18 21.05 штиль 0 10 км {гроза} 4/0
[Ci fib]
+16.9 +13.2 79 +17 +17 1011.6 996.5 +25.5
21 21.05 СВ 2 10 км 3/0
[Ci fib]
+12.9 +11.8 93 +12 +12 1012.3 997.0
00 22.05 С 1 10 км туман поземный 1/0
[Ci fib]
+9.7 +8.8 94 +9 +9 1011.8 996.3
03 22.05 С 1 10 км 4/0
[Ci fib]
+12.7 +11.9 95 +13 +13 1011.0 995.7 +9.3
06 22.05 СВ 4 10 км 3/0
[Ci fib]
+17.2 +12.8 75 +17 +21 1010.6 995.6 +9.3
12 22.05 СВ 2 10 км 3/3 1000 м
[Cu hum]
+23.0 +12.0 50 +26 +35 жарко 1009.5 994.7
15 22.05 СВ 2 10 км 4/3 1000 м
[Cu hum Ci fib]
+22.8 +10.0 44 +25 +27 комфорт 1007.3 992.6
18 22.05 ЮЗ 1 10 км 8/4 1000 м
[Cu hum Ci fib]
+19.3 +12.6 65 +22 +22 комфорт 1007.1 992.2 +23.9
21 22.05 Ю 2 10 км 3/0
[Ci fib]
+12.3 +11.0 92 +11 +11 1006.9 991.6
00 23.05 штиль 0 10 км туман поземный 4/0
[Ci fib]
+12.0 +11.2 95 +11 +11 1006.3 991.0
06 23.05 СВ 5 10 км 9/9 800 м
[Sc diur, vesp]
+11.0 +9.1 88 +8 +9 1009.1 993.7 +10.8
09 23.05 СВ 6 10 км 9/9 750 м
[Sc diur, vesp]
+9.5 +5.8 78 +6 +6 1011.5 996.0
12 23.05 СВ 5 10 км 9/9 800 м
[Sc diur, vesp]
+9.6 +4.7 71 +7 +7 1012.5 997.0
15 23.05 СВ 4 10 км 4/0
[Ci fib]
+10.8 +4.5 65 +9 +11 1012.1 996.7
18 23.05 СВ 3 10 км 4/0
[Ac trans Ci fib]
+8.1 +3.5 73 +6 +6 1013.4 997.8 +11.1
21 23.05 В 3 10 км 3/0
[Ac trans]
+5.1 +1.0 75 +2 +2 1013.9 998.1
00 24.05 СВ 2 10 км 8/0
[Ac trans Ci fib]
+5.4 +2.4 81 +3 +3 1013.7 997.9
03 24.05 В 4 10 км 8/0
[Ac trans Ci fib]
+5.4 +2.6 82 +1 +2 1014.1 998.3 +4.7
06 24.05 ЮВ 5 10 км 6/0
[Ac trans Ci fib]
+9.0 +3.5 68 +6 +9 1013.6 998.0 +4.7
09 24.05 ЮВ 4 10 км 8/0
[Ac trans Ci fib]
+12.7 +5.2 60 +11 +16 1012.6 997.2
12 24.05 ЮВ 4 10 км 9/4 1000 м
[Sc diur, vesp Ac trans Ci fib]
+13.2 +4.9 57 +12 +15 1011.8 996.5
15 24.05 В 2 10 км в посл. час ливневой дождь 9/9 840 м
[Cb cap]
+11.9 +8.8 81 +11 +11 1010.1 994.8 1
18 24.05 ЮВ 3 10 км {ливн. осадки} 9/9 800 м
[Cb cap]
+11.2 +8.4 83 +9 +9 1009.8 994.4 +13.7 1
21 24.05 ЮВ 1 4000 м слаб. ливневой дождь 10/10 570 м
[Cb cap]
+10.2 +9.1 93 +10 +10 1008.7 993.3
00 25.05 Ю 1 10 км {ливн. осадки} 9/9 630 м
[Cb cap]
+10.6 +9.7 94 +10 +10 1007.5 992.1
03 25.05 З 2 4000 м дымка 10/10 360 м
[St]
+11.1 +10.3 95 +10 +10 1006.3 991.0 +10.2 1
06 25.05 ЮЗ 2 10 км 9/9 700 м
[Sc diur, vesp]
+12.6 +10.1 85 +12 +12 1005.4 990.2 +10.2 1
09 25.05 ЮЗ 3 10 км 9/9 870 м
[Sc diur, vesp]
+15.9 +8.9 63 +15 +17 1004.0 989.0
12 25.05 ЮЗ 2
{12}
4000 м слаб. ливневой дождь 10/10 540 м
[Cb cap]
+13.0 +10.3 84 +12 +12 1003.4 988.2
15 25.05 З 6 10 км {ливн. осадки} 8/8 840 м
[Sc diur, vesp]
+14.2 +8.2 67 +12 +13 1001.9 986.8 0.7
18 25.05 ЮЗ 2
{10}
10 км {ливн. осадки} 8/8 870 м
[Sc diur, vesp]
+10.7 +6.7 76 +9 +9 1002.2 986.9 +17.3 0.7
21 25.05 ЮЗ 3 10 км 9/9 800 м
[Sc diur, vesp]
+9.8 +7.9 88 +7 +7 1001.9 986.6
00 26.05 З 4 10 км 9/9 750 м
[Sc diur, vesp]
+9.2 +7.0 86 +6 +6 1002.1 986.7
03 26.05 З 5 10 км в посл. час ливневой дождь 9/9 630 м
[Cb cap]
+8.3 +7.1 92 +5 +5 1002.5 987.1 +8.3 0.5
06 26.05 З 3 4000 м слаб. ливневой дождь 10/10 500 м
[Cb cap]
+8.5 +7.4 93 +6 +6 1003.2 987.8 +8.2 1
12 26.05 ЮЗ 5 10 км {ливн. осадки} 9/9 750 м
[Sc diur, vesp]
+14.5 +6.0 57 +13 +14 1001.6 986.5
18 26.05 Ю 4
{13}
4000 м слаб. ливневой дождь 10/10 400 м
[Cb cap]
+8.7 +7.7 93 +5 +5 999.4 984.1 +15.6 6
00 27.05 ЮЗ 5 10 км слаб. ливневой дождь 9/9 660 м
[Cb cap]
+7.8 +6.6 92 +4 +4 998.6 983.2

 

Местоположение метеостанции Волосово (Ленинградская область, Россия): широта 59.43 долгота 29.50 высота над уровнем моря 129 м.

В архиве по умолчанию представлена погода в Волосово за последнюю неделю. Архивные данные за месяц целиком и за предыдущие месяцы, начиная с января 2011 года, Вы можете получить, выбрав интересующий диапазон дат из раскрывающегося списка и нажав кнопку "Ввод!".


*Определитесь, кто Вы:
робот инопланетянин человек

Внимание! Время в таблицах - всемирное. Для получения местного времени необходимо прибавить поправку, которая равна 3 ч.

Смотрите также архив погоды в соседних городах и на ближайших метеорологических станциях:

Погода в Белогорке (Ленинградская область, Россия) (37 км)
Погода в Сосновом Бору (Ленинградская область, Россия) (47 км)
Погода в Шепелево (Ленинградская область, Россия) (48 км)
Погода в Кингисеппе (Ленинградская область, Россия) (51 км)
Погода в Ломоносове (город Санкт-Петербург, Россия) (57 км)
Погода в Кронштадте (город Санкт-Петербург, Россия) (63 км)
Погода в Лисьем Носу (город Санкт-Петербург, Россия) (71 км)
Погода в Санкт-Петербурге (город Санкт-Петербург, Россия) (75 км)
Погода в Нарве (Эстония) (78 км)
Погода в Сланцах (Ленинградская область, Россия) (88 км)

Пояснения к столбцам:

Ветер - указаны скорость ветра в м/с - средняя за 10 мин, порывы в срок и между сроками (в фигурных скобках) и направление, откуда дует ветер: С - северный, СВ - северо-восточный, В - восточный, ЮВ - юго-восточный, Ю - южный, ЮЗ - юго-западный, З - западный, СЗ - северо-западный.
Видимость - горизонтальная дальность видимости в метрах или километрах. При видимости от 1 до 10 км при отсутствии осадков обычно наблюдается дымка, при ухудшении видимости до 1 км и менее - туман. В сухую погоду видимость может ухудшаться дымом, пылью или мглою.
Явления - указаны атмосферные явления, наблюдавшиеся в срок или в последний час перед сроком; фигурными скобками обозначены явления, наблюдавшиеся между сроками (за 1-3 часа до срока); квадратными скобками обозначены град или гололедные отложения с указанием их диаметра в мм.
Облачность - указаны через наклонную черту общая и нижняя облачность в баллах и высота нижней границы облаков в метрах; квадратными скобками обозначены формы облаков: Ci - перистые, Cs - перисто-слоистые, Cc - перисто-кучевые, Ac - высококучевые, As - высокослоистые, Sc - слоисто-кучевые, Ns - слоисто-дождевые, Cu - кучевые, Cb - кучево-дождевые. Подробнее классификацию облаков см. в Атласе облаков (PDF).
T - Температура воздуха - температура, измеренная на высоте 2 м над землей.
Td - Температура точки росы - температура, при понижении до которой содержащийся в воздухе водяной пар достигнет насыщения.
f - Относительная влажность воздуха - влажноcть воздуха, измеренная на высоте 2 м над землей.
Te - Эффективная температура - температура, которую ощущает одетый по сезону человек в тени. Характеристика душности погоды. При расчете учитывается влияние влажности воздуха и скорости ветра на теплоощущения человека.
Tes - Эффективная температура на солнце - температура, которую ощущает человек, с поправкой на солнечный нагрев. Характеристика знойности погоды. Зависит от высоты солнца над горизонтом, облачности и скорости ветра. Ночью, в пасмурную погоду, а также при ветре 12 м/с и более поправка равна нулю.
P - Атмосферное давление - приведенное к уровню моря атмосферное давление.
Po - Атмосферное давление - измеренное на уровне метеостанции атмосферное давление.
Tmin - Минимальная температура - минимум температуры воздуха на высоте 2 м над землей.
Tmax - Максимальная температура - максимум температуры воздуха на высоте 2 м над землей.
R - Количество осадков - Количество выпавших осадков за период времени, мм. При наведении курсора мыши на число - период времени, за который выпало указанное количество осадков.
R24 - Количество осадков - Количество выпавших осадков за 24 часа, мм.
S - Снежный покров - Высота снежного покрова, см. При наведении курсора мыши на число - состояние снежного покрова и степень покрытия местности в баллах.